Nellis AFB, NV

1:13 PM PST on December 11, 2019 (GMT -0800)
Nellis Air Force Base

Weather History for KLSV - September, 2019

Change the Weather History Date:

Monday, September 30, 2019

  Actual Average Record
Temperature  
Mean Temperature 67 °F -  
Max Temperature 77 °F 88 °F 99 °F (2015)
Min Temperature 57 °F 62 °F 53 °F (1999)
Cooling Degree Days 2    
Growing Degree Days 17 (Base 50)    
Moisture  
Dew Point 15 °F    
Average Humidity 14    
Maximum Humidity 28    
Minimum Humidity 7    
Precipitation  
Precipitation 0.00 in - - ()
Sea Level Pressure  
Sea Level Pressure 29.73 in    
Wind  
Wind Speed 10 mph (SSE)    
Max Wind Speed 21 mph    
Max Gust Speed 28 mph    
Visibility 10 miles    
Events      
Averages and records for this station are not official NWS values.
T = Trace of Precipitation, MM = Missing Value Source: NWS Daily Summary

Daily Weather History Graph

Daily Weather History Graph

Search for Another Location

Airport or City:

Astronomy

Sep. 30, 2019 Rise Set
Actual Time 6:34 AM PDT 6:25 PM PDT
Civil Twilight 6:08 AM PDT 6:50 PM PDT
Nautical Twilight 5:38 AM PDT 7:20 PM PDT
Astronomical Twilight 5:08 AM PDT 7:50 PM PDT
Moon 8:40 AM PDT (9/30) 8:07 PM PDT (9/30)
Length of Visible Light 12h 42m
Length of Day
11h 51m
Waxing Crescent, 6% of the Moon is Illuminated
Sep 30
Waxing Crescent
Oct 5
First Quarter
Oct 13
Full
Oct 21
Last Quarter
Oct 27
New

Hourly Weather History & Observations

Time (PDT) Temp. Dew Point Humidity Pressure Visibility Wind Dir Wind Speed Gust Speed Precip Events Conditions
12:58 AM 64.4 °F 27.0 °F 24% 29.69 in 10.0 mi SSW 20.7 mph 27.6 mph N/A   Clear
1:58 AM 64.4 °F 24.8 °F 22% 29.70 in 10.0 mi SSW 12.7 mph - N/A   Clear
2:58 AM 61.5 °F 28.0 °F 28% 29.71 in 10.0 mi SSE 17.3 mph - N/A   Clear
3:58 AM 60.4 °F 23.5 °F 24% 29.73 in 10.0 mi SE 9.2 mph - N/A   Clear
4:58 AM 59.0 °F 14.0 °F 17% 29.76 in 10.0 mi SE 6.9 mph - N/A   Clear
5:58 AM 57.2 °F 10.4 °F 16% 29.76 in 10.0 mi SSW 5.8 mph - N/A   Clear
6:58 AM 57.4 °F 12.9 °F 17% 29.78 in 10.0 mi ESE 5.8 mph - N/A   Clear
7:58 AM 58.6 °F 14.0 °F 17% 29.81 in 10.0 mi Calm Calm - N/A   Clear
8:58 AM 61.7 °F 16.3 °F 17% 29.83 in 10.0 mi South 3.5 mph - N/A   Clear
9:58 AM 64.4 °F 17.2 °F 16% 29.83 in 10.0 mi SSE 5.8 mph - N/A   Clear
10:58 AM 66.9 °F 17.8 °F 15% 29.86 in 10.0 mi ESE 5.8 mph - N/A   Clear
11:58 AM 68.7 °F 15.8 °F 13% 29.84 in 10.0 mi Calm Calm - N/A   Clear
12:58 PM 72.1 °F 14.7 °F 11% 29.77 in 10.0 mi SW 3.5 mph - N/A   Clear
1:58 PM 74.3 °F 11.8 °F 9% 29.73 in 10.0 mi Calm Calm - N/A   Clear
2:58 PM 75.9 °F 10.4 °F 8% 29.70 in 10.0 mi East 15.0 mph 19.6 mph N/A   Clear
3:58 PM 77.2 °F 11.3 °F 8% 29.72 in 10.0 mi East 9.2 mph - N/A   Clear
4:58 PM 77.4 °F 11.5 °F 8% 29.70 in 10.0 mi NE 3.5 mph - N/A   Clear
5:58 PM 76.5 °F 7.7 °F 7% 29.69 in 10.0 mi SSE 13.8 mph - N/A   Clear
6:58 PM 73.2 °F 8.6 °F 8% 29.64 in 10.0 mi SSW 8.1 mph - N/A   Clear
7:58 PM 70.7 °F 9.9 °F 10% 29.65 in 10.0 mi SE 6.9 mph - N/A   Clear
8:58 PM 68.9 °F 11.7 °F 11% 29.66 in 10.0 mi South 5.8 mph - N/A   Clear
9:58 PM 68.5 °F 12.7 °F 12% 29.67 in 10.0 mi South 6.9 mph - N/A   Clear
10:58 PM 64.4 °F 14.0 °F 14% 29.68 in 10.0 mi WSW 6.9 mph - N/A   Clear
11:58 PM 60.3 °F 11.5 °F 15% 29.70 in 10.0 mi WSW 8.1 mph - N/A   Clear